Back to catalog

VIKING

AliveScienceHEO
NORAD 16614·PAYLOAD·🇸🇪 Sweden

Launched Feb 22, 1986 from Guiana Space Centre

Loading…

Next Passes (next 24 hours)

TLE

FreshSource: Space-Track

Epoch: Sep 11, 2026, 13:54 UTC

1 16614U 86019B   26254.57949735 -.00000160  00000-0 -20529-2 0  9999
2 16614  98.8126 271.5260 4697870 203.3361 332.9436  5.50608097815000

Track VIKING in real time with AllMySat

Download on the App Store